STARLINK-3132 (49457 NORAD) Tracking and Keplerian Element Data

This shows tracking and keplerian element data for the satellite.

Feedback or suggestion? Click here.




ElementValue
Catalog49457
NameSTARLINK-3132
Epoch Orbit370
Epoch Day15.91668981
Epoch Year2022
RAAN180.2262
Inclination53.2173
Eccentricity0.0001691
Argument of Perigee32.353
Mean Anonmoly141.4506
Mean Motion15.55260358
Decay Rate-0.00650655
L11 49457U 21104BB 22015.91668981 -.00650655 00000+0 -10233-1 0 9993
L22 49457 53.2173 180.2262 0001691 32.3530 141.4506 15.55260358 3707

Live tracking and technical data element details for STARLINK-3132 (NORAD 49457). STARLINK-3132 can be tracked NOW for your location showing map with azimuth and elevation plus other details from your city location.

Track the satellite on the map from your city or location and see movement details for azimuth, elevation, latitude, longitude, range, height, and movement on the map or in text.







IsCatalogInMostPopularTable: catalog: 49457, numindb: 10
Update: records affected: 1



GetName: 49457 STARLINK-3132

Hit Count: updated at: Thu, 20 Jan 2022 16:50:45 GMT